Location: Avon School (historical)
(37.7514°N, 90.2201°W)
Time: 02:20:47
(UTC+00:00)

Explorer 7 - Pass Details

Date: 08 November 2024
Orbit: 456 x 598 km, 50.3° (Epoch: 03 December)

Event Time Altitude Azimuth Distance (km) Brightness Sun altitude
Exits shadow 10:30:50 60° 133° (SE) 615 7.1 -24.6°
Drops below altitude 10° 10:34:54 10° 59° (ENE) 1,841 10.2 -23.8°
Sets 10:37:14 0° 56° (NE) 2,764 11.2 -23.3°
